Home   Weather   Guimarães   Past weeks

Flag for Portugal Past Weather in Guimarães, Portugal — Yesterday and Last 2 Weeks

Now
55 °F

Cool.


Feels Like: 55 °F
Forecast: 46 / 69 °F
Wind: 1 mph from Northeast

Location: Porto / Pedras Rubras

Current Time: Oct 1, 2016 at 6:06:44 AM

Latest Report: Oct 1, 2016 at 5:00 AM


Visibility: N/A

Pressure: 29.98 "Hg

Humidity: 91%

Dew Point: 52 °F

Location of GuimarãesLocation

Past Weather in Guimarães — Graph

°F

Guimarães Temperature Yesterday

Maximum temperature yesterday: 65 °F (at 11:00 AM)
Minimum temperature yesterday: 54 °F (at 8:00 AM)
Average temperature yesterday: 61 °F

High & Low Weather Summary for the Past Weeks

 TemperatureHumidityPressure
High86 °F (Sep 28, 2:00 PM)93% (Sep 20, 10:00 AM)30.34 "Hg (Sep 20, 10:00 AM)
Low53 °F (Sep 20, 7:00 AM)32% (Sep 19, 4:00 PM)29.98 "Hg (Sep 20, 5:00 PM)
Average64 °F72%30.16 "Hg
* Reported Sep 16 4:00 AM — Oct 1 4:00 AM, Guimarães, Weather by CustomWeather, © 2016

Note: Actual official high and low records may vary slightly from our data, if they occured in-between our weather recording intervals... More about our weather records

Advertising

Guimarães Weather History for the Previous 24 Hours

Scroll right to see more
 ConditionsComfort  
Time TempWeatherWind HumidityBarometerVisibility
4:00 AM
Sat, Oct 1
55 °FCool.2 mph91%29.98 "HgN/A
3:00 AM56 °FCool.2 mph90%29.99 "HgN/A
2:00 AM58 °FCool.3 mph90%30.00 "HgN/A
1:00 AM59 °FCool.2 mph89%30.01 "HgN/A
12:00 AM59 °FCool.2 mph87%30.01 "HgN/A
11:00 PM
Fri, Sep 30
60 °FCool.2 mph76%30.01 "HgN/A
10:00 PM61 °FCool.6 mph82%30.02 "HgN/A
9:00 PM59 °FCool.2 mph90%30.02 "HgN/A
7:00 PM60 °FCool.2 mph89%30.01 "HgN/A
6:00 PM60 °FCool.3 mph87%30.01 "HgN/A
5:00 PM61 °FCool.2 mph86%30.00 "HgN/A
4:00 PM62 °FCool.2 mph86%30.01 "HgN/A
3:00 PM61 °FCool.3 mph88%30.02 "HgN/A
2:00 PM65 °FMild.3 mph76%30.03 "HgN/A
1:00 PM65 °FMild.2 mph78%30.04 "HgN/A
12:00 PM62 °FCool.3 mph80%30.05 "HgN/A
11:00 AM65 °FMild.2 mph68%30.05 "HgN/A
10:00 AM65 °FMild.1 mph65%30.05 "HgN/A
9:00 AM60 °FCool.1 mph84%30.04 "HgN/A
8:00 AM54 °FCool.2 mph89%30.04 "HgN/A
7:00 AM57 °FCool.2 mph76%30.03 "HgN/A
6:00 AM58 °FCool.1 mph76%30.04 "HgN/A
Weather by CustomWeather, © 2016

See weather overviewHow to use our weather pages